WA5KWK Weather Reports


Display with metric or nautical units.
time (UTC)temp
F
wind
direction
speed
MPH
gust
MPH
rain 1hr
in
rain 24hr
in
rain mn
in
humidity
%
barometer
mb
20260831013505 80 251 2.0 5.0 0.00 0.00 0.00 36 1013.4
20260831013005 81 248 1.0 2.0 0.00 0.00 0.00 36 1013.5
20260831012505 81 248 2.0 3.0 0.00 0.00 0.00 36 1013.5
20260831012005 81 248 2.0 5.0 0.00 0.00 0.00 36 1013.5
20260831011005 82 266 2.0 7.0 0.00 0.00 0.00 36 1013.6
20260831010005 82 300 1.0 5.0 0.00 0.00 0.00 35 1013.6
20260831005505 82 274 1.0 5.0 0.00 0.00 0.00 36 1013.6
20260831005004 81 214 1.0 3.0 0.00 0.00 0.00 36 1013.6
20260831004504 81 266 2.0 6.0 0.00 0.00 0.00 35 1013.5
20260831004005 81 242 2.0 6.0 0.00 0.00 0.00 36 1013.6
20260831003505 81 182 2.0 5.0 0.00 0.00 0.00 36 1013.6
20260831003005 81 203 2.0 6.0 0.00 0.00 0.00 36 1013.5
20260831002004 81 187 3.0 5.0 0.00 0.00 0.00 36 1013.6
20260831001505 81 198 4.0 6.0 0.00 0.00 0.00 36 1013.7
20260831000504 82 188 5.0 10.0 0.00 0.00 0.00 36 1013.6
20260831000005 82 271 3.0 7.0 0.00 0.00 0.00 36 1013.6
20260830235004 82 221 4.0 9.0 0.00 0.00 0.00 36 1013.7
20260830234505 82 258 3.0 7.0 0.00 0.00 0.00 35 1013.7
20260830234005 82 195 5.0 12.0 0.00 0.00 0.00 36 1013.8
20260830233006 82 194 3.0 8.0 0.00 0.00 0.00 35 1013.8
20260830232505 82 192 3.0 9.0 0.00 0.00 0.00 36 1013.8
20260830232005 82 269 2.0 6.0 0.00 0.00 0.00 35 1013.7
20260830231505 83 202 5.0 9.0 0.00 0.00 0.00 35 1013.8
20260830231005 83 193 5.0 15.0 0.00 0.00 0.00 35 1013.8
20260830230005 82 199 5.0 9.0 0.00 0.00 0.00 36 1013.9
20260830225504 82 234 5.0 10.0 0.00 0.00 0.00 36 1013.9
20260830225004 82 212 4.0 10.0 0.00 0.00 0.00 35 1013.9
20260830224505 83 156 6.0 10.0 0.00 0.00 0.00 35 1014.1
20260830224005 83 206 3.0 10.0 0.00 0.00 0.00 35 1014.0
20260830223505 82 249 5.0 12.0 0.00 0.00 0.00 36 1014.1
20260830223005 82 192 5.0 12.0 0.00 0.00 0.00 35 1014.1
20260830222505 82 223 6.0 12.0 0.00 0.00 0.00 36 1014.1
20260830222005 82 230 3.0 7.0 0.00 0.00 0.00 35 1014.2
20260830221505 82 228 5.0 9.0 0.00 0.00 0.00 35 1014.2
20260830221005 83 261 5.0 12.0 0.00 0.00 0.00 34 1014.4
20260830220505 82 252 6.0 12.0 0.00 0.00 0.00 35 1014.4
20260830215504 82 251 6.0 12.0 0.00 0.00 0.00 35 1014.5
20260830215005 83 183 6.0 12.0 0.00 0.00 0.00 35 1014.5
20260830214505 83 189 6.0 12.0 0.00 0.00 0.00 35 1014.5
20260830213505 83 196 3.0 12.0 0.00 0.00 0.00 33 1014.5
20260830213005 83 235 3.0 9.0 0.00 0.00 0.00 33 1014.6
20260830212504 83 319 3.0 9.0 0.00 0.00 0.00 33 1014.7
20260830212004 83 269 4.0 12.0 0.00 0.00 0.00 33 1014.7
20260830211504 84 325 4.0 9.0 0.00 0.00 0.00 32 1014.7
20260830211005 84 291 4.0 9.0 0.00 0.00 0.00 33 1014.7
20260830210505 83 191 3.0 10.0 0.00 0.00 0.00 34 1014.6
20260830210005 82 239 3.0 8.0 0.00 0.00 0.00 34 1014.6
20260830205505 82 210 7.0 13.0 0.00 0.00 0.00 34 1014.6
20260830205005 83 211 6.0 13.0 0.00 0.00 0.00 33 1014.6
20260830204505 82 307 4.0 9.0 0.00 0.00 0.00 33 1014.7
20260830204005 83 222 5.0 12.0 0.00 0.00 0.00 33 1014.8
20260830203505 83 198 5.0 12.0 0.00 0.00 0.00 34 1014.7
20260830202504 83 232 3.0 10.0 0.00 0.00 0.00 34 1014.5
20260830202005 83 207 6.0 12.0 0.00 0.00 0.00 33 1014.6
20260830200005 82 216 7.0 12.0 0.00 0.00 0.00 34 1014.7
20260830195505 82 204 5.0 12.0 0.00 0.00 0.00 35 1014.7
20260830195005 83 188 9.0 13.0 0.00 0.00 0.00 34 1014.7
20260830194505 82 190 6.0 13.0 0.00 0.00 0.00 35 1014.6
20260830194004 82 226 6.0 15.0 0.00 0.00 0.00 36 1014.7
20260830193505 82 202 6.0 17.0 0.00 0.00 0.00 35 1014.7
20260830192004 81 165 5.0 13.0 0.00 0.00 0.00 36 1014.8
20260830191504 81 209 7.0 15.0 0.00 0.00 0.00 36 1014.7
20260830191005 82 206 6.0 10.0 0.00 0.00 0.00 36 1014.9
20260830190505 82 227 7.0 12.0 0.00 0.00 0.00 36 1014.8
20260830190004 82 218 8.0 12.0 0.00 0.00 0.00 36 1014.9
20260830185505 82 210 6.0 10.0 0.00 0.00 0.00 35 1015.0
20260830185004 82 216 7.0 12.0 0.00 0.00 0.00 36 1014.9
20260830184505 82 185 7.0 13.0 0.00 0.00 0.00 36 1015.0
20260830184006 83 193 6.0 9.0 0.00 0.00 0.00 37 1015.1
20260830183505 82 201 6.0 13.0 0.00 0.00 0.00 35 1015.1
20260830182505 82 145 7.0 13.0 0.00 0.00 0.00 37 1015.1
20260830182005 82 169 7.0 15.0 0.00 0.00 0.00 35 1015.0
20260830181505 82 221 5.0 10.0 0.00 0.00 0.00 35 1015.0
20260830181005 82 182 5.0 10.0 0.00 0.00 0.00 36 1015.0
20260830180504 82 177 7.0 12.0 0.00 0.00 0.00 36 1015.0
20260830175004 81 189 6.0 10.0 0.00 0.00 0.00 35 1015.1
20260830174505 81 156 3.0 9.0 0.00 0.00 0.00 35 1015.1
20260830174005 81 207 5.0 8.0 0.00 0.00 0.00 35 1015.2
20260830173505 80 192 3.0 9.0 0.00 0.00 0.00 36 1015.1
20260830173004 80 216 6.0 9.0 0.00 0.00 0.00 35 1015.0
20260830172504 80 178 4.0 10.0 0.00 0.00 0.00 36 1015.0
20260830172004 80 180 5.0 10.0 0.00 0.00 0.00 34 1014.9
20260830171505 80 163 4.0 8.0 0.00 0.00 0.00 35 1015.0
20260830170505 79 225 4.0 8.0 0.00 0.00 0.00 36 1014.9
20260830170004 79 122 3.0 8.0 0.00 0.00 0.00 36 1014.8
20260830165504 78 189 3.0 8.0 0.00 0.00 0.00 37 1014.7
20260830165004 78 200 5.0 8.0 0.00 0.00 0.00 36 1014.7
20260830164004 78 155 3.0 6.0 0.00 0.00 0.00 39 1014.7
20260830163505 77 198 3.0 5.0 0.00 0.00 0.00 40 1014.7
20260830163005 76 225 3.0 5.0 0.00 0.00 0.00 40 1014.8
20260830162504 76 211 1.0 5.0 0.00 0.00 0.00 41 1014.8
20260830161504 75 183 2.0 3.0 0.00 0.00 0.00 41 1014.9
20260830161005 74 174 2.0 5.0 0.00 0.00 0.00 42 1014.9
20260830160505 74 174 2.0 5.0 0.00 0.00 0.00 41 1014.8
20260830155504 72 164 1.0 2.0 0.00 0.00 0.00 42 1014.9
20260830155005 72 164 0.0 0.0 0.00 0.00 0.00 42 1014.9
20260830154504 72 164 0.0 0.0 0.00 0.00 0.00 43 1014.8
20260830154004 71 164 1.0 3.0 0.00 0.00 0.00 43 1014.9
20260830153504 71 164 2.0 3.0 0.00 0.00 0.00 45 1014.9
20260830153005 71 164 1.0 3.0 0.00 0.00 0.00 44 1014.9
20260830152005 70 164 2.0 5.0 0.00 0.00 0.00 44 1014.9
20260830151504 70 164 1.0 2.0 0.00 0.00 0.00 44 1014.9
20260830151005 70 164 1.0 2.0 0.00 0.00 0.00 43 1014.8
20260830150505 70 164 0.0 2.0 0.00 0.00 0.00 43 1014.8
20260830150004 70 164 0.0 2.0 0.00 0.00 0.00 43 1014.8
20260830145504 69 164 0.0 2.0 0.00 0.00 0.00 43 1014.9
20260830144504 69 99 0.0 0.0 0.00 0.00 0.00 42 1014.9
20260830144005 69 99 0.0 0.0 0.00 0.00 0.00 42 1014.9
20260830143504 68 99 0.0 2.0 0.00 0.00 0.00 42 1014.8
20260830143004 69 99 1.0 3.0 0.00 0.00 0.00 42 1014.7
20260830142505 68 99 2.0 3.0 0.00 0.00 0.00 42 1014.5
20260830142004 68 106 2.0 3.0 0.00 0.00 0.00 42 1014.5
20260830141004 68 106 2.0 3.0 0.00 0.00 0.00 41 1014.6
20260830140504 68 113 2.0 3.0 0.00 0.00 0.00 41 1014.4
20260830140005 68 261 2.0 3.0 0.00 0.00 0.00 40 1014.4
20260830135504 68 261 1.0 3.0 0.00 0.00 0.00 40 1014.5
20260830135004 68 261 2.0 3.0 0.00 0.00 0.00 40 1014.4
20260830133005 67 265 1.0 2.0 0.00 0.00 0.00 41 1014.1
20260830132504 66 265 1.0 2.0 0.00 0.00 0.00 43 1014.0
20260830132005 66 265 1.0 2.0 0.00 0.00 0.00 44 1013.9
20260830131504 66 265 1.0 2.0 0.00 0.00 0.00 44 1013.9
20260830131004 66 265 1.0 2.0 0.00 0.00 0.00 44 1013.9
20260830130505 66 265 1.0 2.0 0.00 0.00 0.00 45 1013.9
20260830130005 66 265 1.0 2.0 0.00 0.00 0.00 46 1013.9
20260830125504 66 265 1.0 2.0 0.00 0.00 0.00 46 1013.9
20260830125004 66 265 1.0 2.0 0.00 0.00 0.00 47 1014.0
20260830124505 66 265 1.0 2.0 0.00 0.00 0.00 47 1014.1
20260830124004 66 265 1.0 2.0 0.00 0.00 0.00 47 1013.9
20260830123005 65 265 1.0 2.0 0.00 0.00 0.00 47 1013.9
20260830122504 65 265 1.0 2.0 0.00 0.00 0.00 47 1013.8
20260830122004 65 265 1.0 2.0 0.00 0.00 0.00 48 1013.8
20260830121504 65 265 2.0 2.0 0.00 0.00 0.00 49 1013.9
20260830121004 64 265 1.0 2.0 0.00 0.00 0.00 49 1013.9
20260830120004 65 265 2.0 3.0 0.00 0.00 0.00 49 1014.0
20260830115505 65 265 1.0 2.0 0.00 0.00 0.00 49 1014.0
20260830115005 66 265 1.0 2.0 0.00 0.00 0.00 48 1014.1
20260830114505 66 265 1.0 2.0 0.00 0.00 0.00 48 1013.9
20260830113004 65 265 1.0 2.0 0.00 0.00 0.00 48 1014.1
20260830112504 65 265 1.0 2.0 0.00 0.00 0.00 48 1014.1
20260830112004 65 265 1.0 2.0 0.00 0.00 0.00 48 1014.0
20260830111504 65 265 1.0 2.0 0.00 0.00 0.00 48 1014.1
20260830110504 65 265 1.0 2.0 0.00 0.00 0.00 47 1014.1
20260830110004 65 265 1.0 2.0 0.00 0.00 0.00 47 1014.1
20260830105004 65 265 1.0 2.0 0.00 0.00 0.00 46 1014.1
20260830104504 66 265 1.0 2.0 0.00 0.00 0.00 46 1014.1
20260830104005 66 265 1.0 2.0 0.00 0.00 0.00 45 1014.2
20260830102508 66 265 1.0 2.0 0.00 0.00 0.00 44 1014.2
20260830102006 66 265 1.0 2.0 0.00 0.00 0.00 44 1014.2
20260830101505 66 265 1.0 2.0 0.00 0.00 0.00 44 1014.2
20260830100505 66 265 0.0 0.0 0.00 0.00 0.00 43 1014.2
20260830100004 66 265 0.0 0.0 0.00 0.00 0.00 43 1014.2
20260830095005 66 265 0.0 0.0 0.00 0.00 0.00 43 1014.4
20260830094504 66 265 1.0 2.0 0.00 0.00 0.00 42 1014.3
20260830094004 66 265 1.0 2.0 0.00 0.00 0.00 42 1014.3
20260830093505 66 265 1.0 2.0 0.00 0.00 0.00 42 1014.4
20260830093005 66 265 0.0 1.0 0.00 0.00 0.00 42 1014.3
20260830092504 66 265 0.0 0.0 0.00 0.00 0.00 42 1014.3
20260830092004 66 265 0.0 0.0 0.00 0.00 0.00 41 1014.2
20260830091504 66 265 0.0 0.0 0.00 0.00 0.00 40 1014.2
20260830091004 66 265 0.0 1.0 0.00 0.00 0.00 40 1014.3
20260830090005 65 265 1.0 1.0 0.00 0.00 0.00 39 1014.3
20260830085504 65 265 1.0 1.0 0.00 0.00 0.00 39 1014.4
20260830085004 65 265 0.0 1.0 0.00 0.00 0.00 39 1014.5
20260830084004 65 265 1.0 1.0 0.00 0.00 0.00 39 1014.5
20260830083504 65 265 0.0 2.0 0.00 0.00 0.00 40 1014.8
20260830083006 65 265 1.0 2.0 0.00 0.00 0.00 41 1014.8
20260830082509 65 265 0.0 1.0 0.00 0.00 0.00 41 1014.8
20260830082004 65 265 0.0 1.0 0.00 0.00 0.00 41 1014.8
20260830081504 66 265 0.0 2.0 0.00 0.00 0.00 41 1014.7
20260830081004 66 265 0.0 1.0 0.00 0.00 0.00 42 1014.7
20260830080504 66 265 0.0 2.0 0.00 0.00 0.00 42 1014.8
20260830075504 66 265 0.0 1.0 0.00 0.00 0.00 43 1014.8
20260830075004 66 265 0.0 0.0 0.00 0.00 0.00 42 1014.6
20260830074503 66 265 0.0 0.0 0.00 0.00 0.00 40 1014.7
20260830074004 66 265 0.0 0.0 0.00 0.00 0.00 41 1014.7
20260830073004 66 265 0.0 1.0 0.00 0.00 0.00 40 1014.6
20260830071503 66 265 1.0 2.0 0.00 0.00 0.00 40 1014.7
20260830070505 66 265 1.0 2.0 0.00 0.00 0.00 43 1014.7
20260830065504 66 265 1.0 2.0 0.00 0.00 0.00 42 1014.6
20260830065004 66 265 1.0 2.0 0.00 0.00 0.00 42 1014.7
20260830064504 66 265 1.0 3.0 0.00 0.00 0.00 44 1014.7
20260830064004 65 265 2.0 3.0 0.00 0.00 0.00 47 1014.7
20260830063504 65 265 0.0 0.0 0.00 0.00 0.00 46 1014.7
20260830063004 65 265 0.0 0.0 0.00 0.00 0.00 46 1014.7
20260830062004 66 265 0.0 0.0 0.00 0.00 0.00 47 1014.9
20260830060505 66 265 0.0 0.0 0.00 0.00 0.00 47 1014.8
20260830060004 66 265 0.0 0.0 0.00 0.00 0.00 48 1014.8
20260830055504 66 265 0.0 0.0 0.00 0.00 0.00 48 1014.8
20260830055004 66 265 0.0 0.0 0.00 0.00 0.00 48 1015.0
20260830054004 66 265 0.0 0.0 0.00 0.00 0.00 47 1015.0
20260830053504 66 265 0.0 0.0 0.00 0.00 0.00 46 1015.0
20260830052504 66 265 0.0 0.0 0.00 0.00 0.00 46 1014.9
20260830052003 66 265 0.0 0.0 0.00 0.00 0.00 46 1015.1
20260830051504 67 265 0.0 0.0 0.00 0.00 0.00 45 1015.1
20260830051004 67 265 0.0 0.0 0.00 0.00 0.00 44 1015.1
20260830050504 68 265 0.0 1.0 0.00 0.00 0.00 42 1015.1
20260830050004 68 265 1.0 2.0 0.00 0.00 0.00 40 1015.2
20260830045504 69 265 0.0 1.0 0.00 0.00 0.00 40 1015.1
20260830045004 69 265 1.0 2.0 0.00 0.00 0.00 39 1015.0
20260830044503 70 265 2.0 3.0 0.00 0.00 0.00 35 1015.1
20260830044004 71 265 0.0 0.0 0.00 0.00 0.00 35 1015.2
20260830043504 71 265 0.0 1.0 0.00 0.00 0.00 35 1015.2
20260830043004 71 265 0.0 1.0 0.00 0.00 0.00 35 1015.2
20260830042503 72 265 0.0 1.0 0.00 0.00 0.00 35 1015.2
20260830041004 71 265 0.0 2.0 0.00 0.00 0.00 32 1015.0
20260830040504 72 265 0.0 0.0 0.00 0.00 0.00 32 1015.0
20260830040005 72 265 0.0 0.0 0.00 0.00 0.00 31 1014.9
20260830035503 72 265 0.0 0.0 0.00 0.00 0.00 31 1014.9
20260830035004 73 265 0.0 0.0 0.00 0.00 0.00 31 1014.8
20260830034504 73 265 0.0 0.0 0.00 0.00 0.00 31 1014.9
20260830034005 73 265 0.0 0.0 0.00 0.00 0.00 31 1014.8
20260830033504 73 265 1.0 2.0 0.00 0.00 0.00 30 1014.8
20260830033003 74 265 1.0 1.0 0.00 0.00 0.00 30 1014.8
20260830032503 74 265 1.0 2.0 0.00 0.00 0.00 30 1014.8
20260830032004 74 265 1.0 3.0 0.00 0.00 0.00 29 1014.7
20260830031503 74 265 0.0 0.0 0.00 0.00 0.00 29 1014.7
20260830031004 75 265 0.0 0.0 0.00 0.00 0.00 28 1014.7
20260830030504 75 265 0.0 0.0 0.00 0.00 0.00 28 1014.7
20260830030004 75 265 0.0 0.0 0.00 0.00 0.00 28 1014.6
20260830025504 76 265 0.0 0.0 0.00 0.00 0.00 27 1014.6
20260830024504 77 265 0.0 0.0 0.00 0.00 0.00 27 1014.6
20260830024003 77 265 0.0 0.0 0.00 0.00 0.00 27 1014.6
20260830023504 77 265 0.0 0.0 0.00 0.00 0.00 27 1014.6
20260830023004 78 265 0.0 0.0 0.00 0.00 0.00 27 1014.6
20260830022004 78 265 0.0 0.0 0.00 0.00 0.00 28 1014.7
20260830021505 79 265 1.0 2.0 0.00 0.00 0.00 28 1014.6
20260830021006 79 262 0.0 2.0 0.00 0.00 0.00 28 1014.8
20260830020505 80 262 1.0 3.0 0.00 0.00 0.00 27 1014.9
20260830020005 81 264 1.0 3.0 0.00 0.00 0.00 27 1014.9
20260830015506 81 262 1.0 3.0 0.00 0.00 0.00 27 1014.9
20260830015006 81 265 2.0 3.0 0.00 0.00 0.00 27 1015.1
20260830014006 81 196 2.0 5.0 0.00 0.00 0.00 28 1014.9